Campo, CA

10:38 AM PDT on July 19, 2019 (GMT -0700)
Campo

Weather History for KCZZ - May, 2019

Change the Weather History Date:

Thursday, May 9, 2019

  Actual Average Record
Temperature  
Mean Temperature 55 °F 60 °F  
Max Temperature 59 °F 78 °F 94 °F (1997)
Min Temperature 51 °F 41 °F 29 °F (1990)
Degree Days  
Heating Degree Days 10 6  
Month to date heating degree days 96 58  
Since 1 July heating degree days 2814 2826  
Cooling Degree Days 0 1  
Month to date cooling degree days 0 4  
Year to date cooling degree days 2 7  
Growing Degree Days 4 (Base 50)    
Moisture  
Dew Point 48 °F    
Average Humidity 81    
Maximum Humidity 89    
Minimum Humidity 72    
Precipitation  
Precipitation 0.00 in 0.01 in 0.82 in (1977)
Month to date precipitation 0.17 0.10  
Year to date precipitation 11.36 9.96  
Sea Level Pressure  
Sea Level Pressure 29.76 in    
Wind  
Wind Speed 5 mph (SW)    
Max Wind Speed 14 mph    
Max Gust Speed -    
T = Trace of Precipitation, MM = Missing Value Source: NWS Daily Summary

Daily Weather History Graph

Daily Weather History Graph

Search for Another Location

Airport or City:

Astronomy

May. 09, 2019 Rise Set
Actual Time 5:51 AM PDT 7:33 PM PDT
Civil Twilight 5:25 AM PDT 7:59 PM PDT
Nautical Twilight 4:53 AM PDT 8:32 PM PDT
Astronomical Twilight 4:19 AM PDT 9:06 PM PDT
Moon 9:56 AM PDT (5/9) No Moon Set
Length of Visible Light 14h 34m
Length of Day
13h 41m
Waxing Crescent, 26% of the Moon is Illuminated
May 9
Waxing Crescent
May 11
First Quarter
May 18
Full
May 26
Last Quarter
Jun 3
New

Hourly Weather History & Observations

Time (PDT) Temp. Dew Point Humidity Pressure Visibility Wind Dir Wind Speed Gust Speed Precip Events Conditions
12:52 AM 52.0 °F 48.0 °F 86% 29.84 in - SSW 5.8 mph - N/A   Unknown
1:52 AM 52.0 °F 48.0 °F 86% 29.82 in - Calm Calm - N/A   Unknown
2:52 AM 52.0 °F 46.9 °F 83% 29.81 in - Calm Calm - N/A   Unknown
3:52 AM 52.0 °F 46.9 °F 83% 29.80 in - SSW 3.5 mph - N/A   Unknown
4:52 AM 52.0 °F 46.9 °F 83% 29.79 in - West 4.6 mph - N/A   Unknown
5:52 AM 51.1 °F 46.9 °F 86% 29.78 in - SW 4.6 mph - N/A   Unknown
6:52 AM 51.1 °F 48.0 °F 89% 29.79 in - SW 3.5 mph - N/A   Unknown
7:52 AM 51.1 °F 48.0 °F 89% 29.79 in - WSW 3.5 mph - N/A   Unknown
8:52 AM 52.0 °F 48.0 °F 86% 29.78 in - WSW 3.5 mph - N/A   Unknown
9:52 AM 53.1 °F 48.0 °F 83% 29.79 in - SW 6.9 mph - N/A   Unknown
10:52 AM 54.0 °F 48.0 °F 80% 29.78 in - SSW 3.5 mph - N/A   Unknown
11:52 AM 55.0 °F 48.0 °F 77% 29.77 in - SSW 3.5 mph - N/A   Unknown
12:52 PM 57.0 °F 48.0 °F 72% 29.75 in - Variable 5.8 mph - N/A   Unknown
1:52 PM 57.9 °F 48.0 °F 70% 29.73 in - SSW 4.6 mph - N/A   Unknown
2:52 PM 57.0 °F 48.9 °F 74% 29.73 in - SW 12.7 mph - N/A   Unknown
3:52 PM 57.0 °F 50.0 °F 77% 29.71 in - SW 13.8 mph - N/A   Unknown
4:52 PM 55.0 °F 50.0 °F 83% 29.70 in - SSW 11.5 mph - N/A   Unknown
5:52 PM 55.0 °F 50.0 °F 83% 29.70 in - SW 13.8 mph - N/A   Unknown
6:52 PM 53.1 °F 50.0 °F 89% 29.70 in - SW 9.2 mph - N/A   Unknown
7:52 PM 53.1 °F 48.9 °F 86% 29.72 in - WSW 8.1 mph - N/A   Unknown
8:52 PM 52.0 °F 50.0 °F 93% 29.74 in - SW 10.4 mph - N/A   Unknown
9:52 PM 51.1 °F 50.0 °F 96% 29.76 in - SW 8.1 mph - N/A   Unknown
10:52 PM 51.1 °F 48.9 °F 92% 29.75 in - SW 10.4 mph - N/A   Unknown
11:52 PM 51.1 °F 48.9 °F 92% 29.75 in - WSW 6.9 mph - N/A   Unknown